Home   Weather   Weymouth   Past weeks

Flag for United Kingdom Past Weather in Weymouth, England, United Kingdom — Yesterday and Last 2 Weeks

Now
39 °F

Duststorm.


Feels Like: 36 °F
Forecast: N/A
Wind: 5 mph from East

Location: Isle Of Portland

Current Time: Jan 23, 2017 at 7:16:11 pm

Latest Report: Jan 23, 2017 at 6:00 pm


Visibility: 0 mi

Pressure: 30.36 "Hg

Humidity: 100%

Dew Point: 39 °F

Location of WeymouthLocation

Past Weather in Weymouth — Graph

°F

Weymouth Temperature Yesterday

Maximum temperature yesterday: 48 °F (at 1:00 pm)
Minimum temperature yesterday: 40 °F (at 1:00 am)
Average temperature yesterday: 43 °F

High & Low Weather Summary for the Past Weeks

 TemperatureHumidityPressure
High52 °F (Jan 11, 8:00 am)100% (Jan 16, 6:00 pm)30.67 "Hg (Jan 16, 6:00 pm)
Low35 °F (Jan 20, 7:00 am)50% (Jan 19, 3:00 pm)29.35 "Hg (Jan 12, 4:00 pm)
Average44 °F81%30.25 "Hg
* Reported Jan 8 5:00 pm — Jan 23 5:00 pm, Weymouth, Weather by CustomWeather, © 2017

Note: Actual official high and low records may vary slightly from our data, if they occured in-between our weather recording intervals... More about our weather records

Advertising

Weymouth Weather History for the Previous 24 Hours

Scroll right to see more
 ConditionsComfort  
Time TempWeatherWind HumidityBarometerVisibility
5:00 pm
Mon, Jan 23
40 °FDuststorm.7 mph100%30.36 "Hg0 mi
4:00 pm40 °FDuststorm.7 mph100%30.35 "Hg0 mi
3:00 pm41 °FDuststorm.6 mph100%30.35 "Hg0 mi
2:00 pm42 °FDuststorm.8 mph100%30.36 "Hg0 mi
1:00 pm43 °FSmoke.8 mph93%30.37 "Hg3 mi
12:00 pm44 °FSmoke.8 mph94%30.39 "Hg5 mi
11:00 am44 °FSmoke.9 mph92%30.38 "Hg6 mi
10:00 am44 °FFog.8 mph97%30.38 "Hg5 mi
9:00 am42 °FFog.9 mph100%30.37 "Hg2 mi
8:00 am40 °FFog.10 mph99%30.36 "Hg2 mi
7:00 am40 °FFog.9 mph97%30.36 "Hg2 mi
6:00 am40 °FFog.8 mph96%30.35 "Hg3 mi
5:00 am42 °FQuite cool.9 mph93%30.34 "Hg7 mi
4:00 am41 °FFog.9 mph95%30.34 "Hg5 mi
3:00 am40 °FFog.9 mph95%30.35 "Hg5 mi
2:00 am40 °FSmoke.8 mph93%30.35 "Hg6 mi
1:00 am41 °FQuite cool.7 mph92%30.35 "Hg7 mi
12:00 am42 °FQuite cool.8 mph76%30.36 "Hg19 mi
11:00 pm
Sun, Jan 22
43 °FQuite cool.9 mph77%30.36 "Hg17 mi
10:00 pm43 °FQuite cool.12 mph81%30.34 "Hg13 mi
9:00 pm42 °FQuite cool.12 mph78%30.34 "Hg19 mi
8:00 pm43 °FQuite cool.10 mph79%30.33 "Hg18 mi
7:00 pm42 °FQuite cool.10 mph79%30.32 "Hg18 mi
Weather by CustomWeather, © 2017

See weather overviewHow to use our weather pages